Time,TemperatureF,DewpointF,PressureIn,WindDirection,WindDirectionDegrees,WindSpeedMPH,WindSpeedGustMPH,Humidity,HourlyPrecipIn,Conditions,Clouds,dailyrainin,SoftwareType,DateUTC
2013-06-29 00:02:00,63.4,54.5,27.58,NE,45,0.0,0.0,73,0.00,,,0.00,WUHU216HW,2013-06-29 07:02:00,
2013-06-29 00:07:00,63.0,54.5,27.58,NE,45,0.0,0.0,74,0.00,,,0.00,WUHU216HW,2013-06-29 07:07:00,
2013-06-29 00:12:00,62.8,54.4,27.58,NE,45,0.0,0.0,74,0.00,,,0.00,WUHU216HW,2013-06-29 07:12:00,
2013-06-29 00:17:00,62.6,53.8,27.58,NE,45,0.0,0.0,73,0.00,,,0.00,WUHU216HW,2013-06-29 07:17:00,
2013-06-29 00:22:00,62.5,53.6,27.58,NE,45,0.0,0.0,73,0.00,,,0.00,WUHU216HW,2013-06-29 07:22:00,
2013-06-29 00:27:00,62.3,53.5,27.58,NE,45,0.0,0.0,73,0.00,,,0.00,WUHU216HW,2013-06-29 07:27:00,
2013-06-29 00:32:00,62.1,53.7,27.58,NE,45,0.0,0.0,74,0.00,,,0.00,WUHU216HW,2013-06-29 07:32:00,
2013-06-29 00:37:00,61.9,53.6,27.58,NE,45,0.0,0.0,74,0.00,,,0.00,WUHU216HW,2013-06-29 07:37:00,
2013-06-29 00:42:00,61.7,53.4,27.58,NE,45,0.0,0.0,74,0.00,,,0.00,WUHU216HW,2013-06-29 07:42:00,
2013-06-29 00:47:00,61.6,53.6,27.58,NE,45,0.0,0.0,75,0.00,,,0.00,WUHU216HW,2013-06-29 07:47:00,
2013-06-29 00:52:00,61.4,53.4,27.58,NE,45,0.0,0.0,75,0.00,,,0.00,WUHU216HW,2013-06-29 07:52:00,
2013-06-29 00:57:00,61.2,53.3,27.58,NE,45,0.0,0.0,75,0.00,,,0.00,WUHU216HW,2013-06-29 07:57:00,
2013-06-29 01:02:00,61.0,53.5,27.58,NE,45,0.0,0.0,76,0.00,,,0.00,WUHU216HW,2013-06-29 08:02:00,
2013-06-29 01:07:00,60.8,53.3,27.58,NE,45,0.0,0.0,76,0.00,,,0.00,WUHU216HW,2013-06-29 08:07:00,
2013-06-29 01:12:00,60.7,53.1,27.58,NE,45,0.0,0.0,76,0.00,,,0.00,WUHU216HW,2013-06-29 08:12:00,
2013-06-29 01:17:00,60.5,52.9,27.58,NE,45,0.0,0.0,76,0.00,,,0.00,WUHU216HW,2013-06-29 08:17:00,
2013-06-29 01:22:00,60.5,53.3,27.58,NE,45,0.0,0.0,77,0.00,,,0.00,WUHU216HW,2013-06-29 08:22:00,
2013-06-29 01:27:00,60.3,53.1,27.58,NE,45,0.0,0.0,77,0.00,,,0.00,WUHU216HW,2013-06-29 08:27:00,
2013-06-29 01:32:00,60.1,52.9,27.58,NE,45,0.0,0.0,77,0.00,,,0.00,WUHU216HW,2013-06-29 08:32:00,
2013-06-29 01:37:00,59.9,53.1,27.58,NE,45,0.0,0.0,78,0.00,,,0.00,WUHU216HW,2013-06-29 08:37:00,
2013-06-29 01:42:00,59.8,52.9,27.58,NE,45,0.0,0.0,78,0.00,,,0.00,WUHU216HW,2013-06-29 08:42:00,
2013-06-29 01:47:00,59.6,52.7,27.58,NE,45,0.0,0.0,78,0.00,,,0.00,WUHU216HW,2013-06-29 08:47:00,
2013-06-29 01:52:00,59.4,52.6,27.58,NE,45,0.0,0.0,78,0.00,,,0.00,WUHU216HW,2013-06-29 08:52:00,
2013-06-29 01:57:00,59.4,52.9,27.58,NE,45,0.0,0.0,79,0.00,,,0.00,WUHU216HW,2013-06-29 08:57:00,
2013-06-29 02:02:00,59.0,52.6,27.58,NE,45,0.0,0.0,79,0.00,,,0.00,WUHU216HW,2013-06-29 09:02:00,
2013-06-29 02:07:00,58.9,52.4,27.57,NE,45,0.0,0.0,79,0.00,,,0.00,WUHU216HW,2013-06-29 09:07:00,
2013-06-29 02:12:00,58.7,52.9,27.58,ESE,113,0.7,0.7,81,0.00,,,0.00,WUHU216HW,2013-06-29 09:12:00,
2013-06-29 02:17:00,58.5,52.4,27.57,ESE,113,0.0,0.7,80,0.00,,,0.00,WUHU216HW,2013-06-29 09:17:00,
2013-06-29 02:22:00,58.5,52.4,27.57,ESE,113,0.0,0.0,80,0.00,,,0.00,WUHU216HW,2013-06-29 09:22:00,
2013-06-29 02:27:00,58.5,52.4,27.57,ESE,113,0.4,0.4,80,0.00,,,0.00,WUHU216HW,2013-06-29 09:27:00,
2013-06-29 02:32:00,58.3,52.2,27.57,ESE,113,0.0,0.4,80,0.00,,,0.00,WUHU216HW,2013-06-29 09:32:00,
2013-06-29 02:37:00,58.1,52.0,27.57,ESE,113,0.0,0.4,80,0.00,,,0.00,WUHU216HW,2013-06-29 09:37:00,
2013-06-29 02:42:00,58.1,52.4,27.57,ENE,68,0.0,0.4,81,0.00,,,0.00,WUHU216HW,2013-06-29 09:42:00,
2013-06-29 02:47:00,58.0,52.2,27.57,ENE,68,0.0,0.4,81,0.00,,,0.00,WUHU216HW,2013-06-29 09:47:00,
2013-06-29 02:52:00,58.0,52.2,27.57,ENE,68,0.0,0.0,81,0.00,,,0.00,WUHU216HW,2013-06-29 09:52:00,
2013-06-29 02:57:00,58.0,52.2,27.57,ENE,68,0.0,0.0,81,0.00,,,0.00,WUHU216HW,2013-06-29 09:57:00,
2013-06-29 03:02:00,57.8,52.0,27.57,ENE,68,0.0,0.0,81,0.00,,,0.00,WUHU216HW,2013-06-29 10:02:00,
2013-06-29 03:07:00,57.6,51.9,27.57,ENE,68,0.0,0.0,81,0.00,,,0.00,WUHU216HW,2013-06-29 10:07:00,
2013-06-29 03:12:00,57.6,51.9,27.56,ENE,68,0.0,0.0,81,0.00,,,0.00,WUHU216HW,2013-06-29 10:12:00,
2013-06-29 03:17:00,57.6,52.1,27.56,ESE,113,0.2,0.2,82,0.00,,,0.00,WUHU216HW,2013-06-29 10:17:00,
2013-06-29 03:22:00,57.4,51.9,27.56,ESE,113,0.0,0.2,82,0.00,,,0.00,WUHU216HW,2013-06-29 10:22:00,
2013-06-29 03:27:00,57.2,51.8,27.56,ESE,113,0.0,0.2,82,0.00,,,0.00,WUHU216HW,2013-06-29 10:27:00,
2013-06-29 03:32:00,57.1,51.6,27.56,SE,135,0.0,0.0,82,0.00,,,0.00,WUHU216HW,2013-06-29 10:32:00,
2013-06-29 03:37:00,56.9,51.8,27.56,SE,135,0.0,0.0,83,0.00,,,0.00,WUHU216HW,2013-06-29 10:37:00,
2013-06-29 03:42:00,56.5,51.0,27.55,SE,135,0.0,0.0,82,0.00,,,0.00,WUHU216HW,2013-06-29 10:42:00,
2013-06-29 03:47:00,56.5,50.8,27.55,SE,135,0.0,0.0,81,0.00,,,0.00,WUHU216HW,2013-06-29 10:47:00,
2013-06-29 03:52:00,56.3,50.9,27.55,SE,135,0.0,0.0,82,0.00,,,0.00,WUHU216HW,2013-06-29 10:52:00,
2013-06-29 03:57:00,56.3,50.9,27.55,SE,135,0.0,0.0,82,0.00,,,0.00,WUHU216HW,2013-06-29 10:57:00,
2013-06-29 04:02:00,56.2,50.7,27.55,SE,135,0.0,0.0,82,0.00,,,0.00,WUHU216HW,2013-06-29 11:02:00,
2013-06-29 04:07:00,56.2,50.7,27.55,SE,135,0.0,0.0,82,0.00,,,0.00,WUHU216HW,2013-06-29 11:07:00,
2013-06-29 04:12:00,56.0,50.5,27.55,SE,135,0.0,0.0,82,0.00,,,0.00,WUHU216HW,2013-06-29 11:12:00,
2013-06-29 04:17:00,56.0,50.5,27.55,SE,135,0.0,0.2,82,0.00,,,0.00,WUHU216HW,2013-06-29 11:17:00,
2013-06-29 04:22:00,56.0,50.9,27.55,NE,45,0.4,0.9,83,0.00,,,0.00,WUHU216HW,2013-06-29 11:22:00,
2013-06-29 04:27:00,55.8,50.7,27.55,ENE,68,0.9,0.9,83,0.00,,,0.00,WUHU216HW,2013-06-29 11:27:00,
2013-06-29 04:32:00,55.8,50.7,27.55,NE,45,0.0,0.9,83,0.00,,,0.00,WUHU216HW,2013-06-29 11:32:00,
2013-06-29 04:37:00,55.8,50.7,27.55,ENE,68,0.0,0.4,83,0.00,,,0.00,WUHU216HW,2013-06-29 11:37:00,
2013-06-29 04:42:00,55.6,50.5,27.55,NE,45,0.0,0.2,83,0.00,,,0.00,WUHU216HW,2013-06-29 11:42:00,
2013-06-29 04:47:00,55.6,50.5,27.55,NE,45,0.0,0.0,83,0.00,,,0.00,WUHU216HW,2013-06-29 11:47:00,
2013-06-29 04:52:00,55.8,50.9,27.55,ENE,68,0.0,0.0,84,0.00,,,0.00,WUHU216HW,2013-06-29 11:52:00,
2013-06-29 04:57:00,56.0,51.1,27.55,East,90,0.0,0.0,84,0.00,,,0.00,WUHU216HW,2013-06-29 11:57:00,
2013-06-29 05:02:00,56.2,51.3,27.55,NE,45,0.0,0.0,84,0.00,,,0.00,WUHU216HW,2013-06-29 12:02:00,
2013-06-29 05:07:00,56.7,52.2,27.55,NE,45,0.4,0.4,85,0.00,,,0.00,WUHU216HW,2013-06-29 12:07:00,
2013-06-29 05:12:00,57.2,52.7,27.55,NE,45,0.0,0.7,85,0.00,,,0.00,WUHU216HW,2013-06-29 12:12:00,
2013-06-29 05:17:00,57.6,53.7,27.56,WSW,248,0.2,0.7,87,0.00,,,0.00,WUHU216HW,2013-06-29 12:17:00,
2013-06-29 05:22:00,58.0,54.1,27.59,South,180,0.7,1.8,87,0.00,,,0.00,WUHU216HW,2013-06-29 12:22:00,
2013-06-29 05:27:00,59.4,57.4,27.64,SSW,203,3.4,5.4,93,0.00,,,0.00,WUHU216HW,2013-06-29 12:27:00,
2013-06-29 05:32:00,60.7,57.8,27.64,SW,225,1.1,5.4,90,0.00,,,0.00,WUHU216HW,2013-06-29 12:32:00,
2013-06-29 05:37:00,61.2,57.3,27.64,ENE,68,1.3,3.6,87,0.01,,,0.00,WUHU216HW,2013-06-29 12:37:00,
2013-06-29 05:42:00,61.2,57.7,27.57,SE,135,1.1,3.4,88,0.01,,,0.01,WUHU216HW,2013-06-29 12:42:00,
2013-06-29 05:47:00,61.2,58.3,27.60,WNW,293,1.8,3.4,90,0.01,,,0.01,WUHU216HW,2013-06-29 12:47:00,
2013-06-29 05:52:00,61.0,57.8,27.61,ENE,68,0.2,2.5,89,0.01,,,0.01,WUHU216HW,2013-06-29 12:52:00,
2013-06-29 05:57:00,61.0,57.5,27.60,ENE,68,0.2,2.2,88,0.01,,,0.01,WUHU216HW,2013-06-29 12:57:00,
2013-06-29 06:02:00,61.0,57.5,27.59,NE,45,1.1,2.2,88,0.01,,,0.01,WUHU216HW,2013-06-29 13:02:00,
2013-06-29 06:07:00,61.0,57.5,27.56,ESE,113,1.8,1.8,88,0.02,,,0.02,WUHU216HW,2013-06-29 13:07:00,
2013-06-29 06:12:00,61.0,58.1,27.55,SW,225,1.8,1.8,90,0.02,,,0.02,WUHU216HW,2013-06-29 13:12:00,
2013-06-29 06:17:00,61.2,58.0,27.57,NW,315,1.1,2.7,89,0.02,,,0.02,WUHU216HW,2013-06-29 13:17:00,
2013-06-29 06:22:00,61.2,58.0,27.57,SSE,158,0.0,2.7,89,0.02,,,0.02,WUHU216HW,2013-06-29 13:22:00,
2013-06-29 06:27:00,61.2,58.0,27.57,SSW,203,1.3,1.3,89,0.02,,,0.02,WUHU216HW,2013-06-29 13:27:00,
2013-06-29 06:32:00,61.2,57.7,27.58,South,180,0.0,1.3,88,0.02,,,0.02,WUHU216HW,2013-06-29 13:32:00,
2013-06-29 06:37:00,61.6,58.1,27.59,SW,225,0.4,1.1,88,0.01,,,0.02,WUHU216HW,2013-06-29 13:37:00,
2013-06-29 06:42:00,61.7,58.2,27.60,NE,45,0.0,1.1,88,0.01,,,0.02,WUHU216HW,2013-06-29 13:42:00,
2013-06-29 06:47:00,61.6,57.7,27.60,NE,45,0.2,1.1,87,0.01,,,0.02,WUHU216HW,2013-06-29 13:47:00,
2013-06-29 06:51:00,61.6,58.1,27.58,East,90,0.7,1.1,88,0.01,,,0.02,WUHU216HW,2013-06-29 13:51:00,
2013-06-29 06:57:00,61.6,58.1,27.56,ENE,68,0.9,1.8,88,0.02,,,0.03,WUHU216HW,2013-06-29 13:57:00,
2013-06-29 07:02:00,61.6,58.3,27.54,SSE,158,1.3,1.8,89,0.01,,,0.03,WUHU216HW,2013-06-29 14:02:00,
2013-06-29 07:07:00,61.6,58.7,27.55,NE,45,0.9,1.8,90,0.01,,,0.03,WUHU216HW,2013-06-29 14:07:00,
2013-06-29 07:12:00,62.1,58.9,27.55,ESE,113,1.8,2.5,89,0.01,,,0.03,WUHU216HW,2013-06-29 14:12:00,
2013-06-29 07:17:00,62.3,58.7,27.54,NE,45,1.1,2.5,88,0.01,,,0.03,WUHU216HW,2013-06-29 14:17:00,
2013-06-29 07:22:00,62.3,58.4,27.53,South,180,2.0,2.7,87,0.01,,,0.03,WUHU216HW,2013-06-29 14:22:00,
2013-06-29 07:27:00,62.5,58.6,27.55,ESE,113,0.9,2.7,87,0.01,,,0.03,WUHU216HW,2013-06-29 14:27:00,
2013-06-29 07:32:00,62.5,58.9,27.51,East,90,1.8,2.5,88,0.01,,,0.03,WUHU216HW,2013-06-29 14:32:00,
2013-06-29 07:37:00,62.8,58.2,27.50,SE,135,3.4,3.8,85,0.01,,,0.03,WUHU216HW,2013-06-29 14:37:00,
2013-06-29 07:42:00,63.7,58.4,27.51,SSW,203,1.3,3.8,83,0.01,,,0.03,WUHU216HW,2013-06-29 14:42:00,
2013-06-29 07:47:00,64.4,59.1,27.53,SW,225,1.3,3.4,83,0.01,,,0.03,WUHU216HW,2013-06-29 14:47:00,
2013-06-29 07:52:00,64.8,59.5,27.54,East,90,0.0,1.8,83,0.01,,,0.03,WUHU216HW,2013-06-29 14:52:00,
2013-06-29 07:57:00,65.2,60.2,27.54,SSW,203,0.0,1.8,84,0.00,,,0.03,WUHU216HW,2013-06-29 14:57:00,
2013-06-29 08:02:00,65.5,60.6,27.54,NE,45,0.0,1.8,84,0.00,,,0.03,WUHU216HW,2013-06-29 15:02:00,
2013-06-29 08:07:00,66.1,61.0,27.53,ENE,68,0.0,0.4,84,0.00,,,0.03,WUHU216HW,2013-06-29 15:07:00,
2013-06-29 08:12:00,67.0,61.7,27.54,SW,225,0.4,1.3,83,0.00,,,0.03,WUHU216HW,2013-06-29 15:12:00,
2013-06-29 08:17:00,67.9,61.9,27.55,NW,315,0.4,1.3,81,0.00,,,0.03,WUHU216HW,2013-06-29 15:17:00,
2013-06-29 08:22:00,68.2,62.2,27.56,WNW,293,0.0,1.1,81,0.00,,,0.03,WUHU216HW,2013-06-29 15:22:00,
2013-06-29 08:27:00,68.4,62.1,27.56,SSW,203,1.6,2.0,80,0.00,,,0.03,WUHU216HW,2013-06-29 15:27:00,
2013-06-29 08:32:00,68.4,61.7,27.56,East,90,0.2,2.0,79,0.00,,,0.03,WUHU216HW,2013-06-29 15:32:00,
2013-06-29 08:37:00,68.4,61.7,27.57,ENE,68,0.0,1.1,79,0.00,,,0.03,WUHU216HW,2013-06-29 15:37:00,
2013-06-29 08:42:00,68.4,61.7,27.56,ENE,68,0.0,1.1,79,0.00,,,0.03,WUHU216HW,2013-06-29 15:42:00,
2013-06-29 08:47:00,68.2,61.9,27.56,ENE,68,0.0,1.1,80,0.00,,,0.03,WUHU216HW,2013-06-29 15:47:00,
2013-06-29 08:52:00,68.4,61.7,27.56,ENE,68,0.4,1.3,79,0.00,,,0.03,WUHU216HW,2013-06-29 15:52:00,
2013-06-29 08:57:00,69.1,61.6,27.56,SSE,158,0.4,2.5,77,0.00,,,0.03,WUHU216HW,2013-06-29 15:57:00,
2013-06-29 09:02:00,69.8,63.0,27.56,West,270,2.0,3.1,79,0.00,,,0.03,WUHU216HW,2013-06-29 16:02:00,
2013-06-29 09:07:00,71.1,63.1,27.56,SW,225,0.7,3.1,76,0.00,,,0.03,WUHU216HW,2013-06-29 16:07:00,
2013-06-29 09:12:00,72.5,64.9,27.56,North,0,2.0,3.1,77,0.00,,,0.03,WUHU216HW,2013-06-29 16:12:00,
2013-06-29 09:17:00,73.8,64.6,27.55,North,0,0.4,3.1,73,0.00,,,0.03,WUHU216HW,2013-06-29 16:17:00,
2013-06-29 09:22:00,74.9,64.1,27.55,SSE,158,2.2,3.1,69,0.00,,,0.03,WUHU216HW,2013-06-29 16:22:00,
2013-06-29 09:27:00,75.4,63.7,27.54,NNE,23,1.8,3.1,67,0.00,,,0.03,WUHU216HW,2013-06-29 16:27:00,
2013-06-29 09:32:00,75.6,63.8,27.54,NW,315,3.6,3.6,67,0.00,,,0.03,WUHU216HW,2013-06-29 16:32:00,
2013-06-29 09:37:00,76.0,62.9,27.54,WSW,248,4.3,4.3,64,0.00,,,0.03,WUHU216HW,2013-06-29 16:37:00,
2013-06-29 09:42:00,76.7,63.5,27.54,NNW,338,1.1,4.3,64,0.00,,,0.03,WUHU216HW,2013-06-29 16:42:00,
2013-06-29 09:47:00,77.2,62.7,27.54,North,0,1.3,4.0,61,0.00,,,0.03,WUHU216HW,2013-06-29 16:47:00,
2013-06-29 09:52:00,76.5,62.5,27.54,NNW,338,0.4,4.7,62,0.00,,,0.03,WUHU216HW,2013-06-29 16:52:00,
2013-06-29 09:57:00,75.4,61.5,27.54,North,0,0.7,4.7,62,0.00,,,0.03,WUHU216HW,2013-06-29 16:57:00,
2013-06-29 10:02:00,74.9,61.5,27.54,NNE,23,0.4,3.4,63,0.00,,,0.03,WUHU216HW,2013-06-29 17:02:00,
2013-06-29 10:07:00,74.5,61.6,27.54,NE,45,0.4,2.5,64,0.00,,,0.03,WUHU216HW,2013-06-29 17:07:00,
2013-06-29 10:12:00,74.2,61.2,27.55,ESE,113,0.2,2.7,64,0.00,,,0.03,WUHU216HW,2013-06-29 17:12:00,
2013-06-29 10:16:00,73.8,60.9,27.55,WNW,293,3.8,3.8,64,0.00,,,0.03,WUHU216HW,2013-06-29 17:16:00,
2013-06-29 10:21:00,73.3,60.8,27.56,West,270,1.6,3.8,65,0.00,,,0.03,WUHU216HW,2013-06-29 17:21:00,
2013-06-29 10:26:00,73.1,61.0,27.57,WSW,248,0.4,3.8,66,0.00,,,0.03,WUHU216HW,2013-06-29 17:26:00,
2013-06-29 10:31:00,72.7,61.1,27.58,West,270,0.4,1.6,67,0.00,,,0.03,WUHU216HW,2013-06-29 17:31:00,
2013-06-29 10:37:00,72.2,60.2,27.59,NW,315,1.3,2.5,66,0.00,,,0.03,WUHU216HW,2013-06-29 17:37:00,
2013-06-29 10:42:00,72.0,60.8,27.59,WSW,248,1.6,2.9,68,0.00,,,0.03,WUHU216HW,2013-06-29 17:42:00,
2013-06-29 10:47:00,71.6,59.7,27.60,WNW,293,2.0,2.9,66,0.00,,,0.03,WUHU216HW,2013-06-29 17:47:00,
2013-06-29 10:52:00,71.3,59.8,27.59,North,0,0.9,2.2,67,0.00,,,0.03,WUHU216HW,2013-06-29 17:52:00,
2013-06-29 10:57:00,70.9,60.2,27.59,SW,225,0.2,2.0,69,0.00,,,0.03,WUHU216HW,2013-06-29 17:57:00,
2013-06-29 11:02:00,70.4,60.5,27.60,NNE,23,1.6,2.5,71,0.02,,,0.05,WUHU216HW,2013-06-29 18:02:00,
2013-06-29 11:07:00,69.7,60.9,27.56,NNE,23,1.6,2.5,74,0.02,,,0.05,WUHU216HW,2013-06-29 18:07:00,
2013-06-29 11:12:00,68.8,60.8,27.55,West,270,2.9,2.9,76,0.02,,,0.05,WUHU216HW,2013-06-29 18:12:00,
2013-06-29 11:17:00,68.0,60.6,27.57,North,0,0.2,2.9,77,0.02,,,0.05,WUHU216HW,2013-06-29 18:17:00,
2013-06-29 11:22:00,67.9,60.9,27.52,NE,45,1.1,3.6,78,0.02,,,0.05,WUHU216HW,2013-06-29 18:22:00,
2013-06-29 11:27:00,67.3,60.7,27.53,WSW,248,4.0,4.3,79,0.03,,,0.06,WUHU216HW,2013-06-29 18:27:00,
2013-06-29 11:32:00,67.0,60.3,27.56,SW,225,0.9,4.7,79,0.03,,,0.06,WUHU216HW,2013-06-29 18:32:00,
2013-06-29 11:37:00,67.0,60.7,27.58,SSW,203,0.4,4.7,80,0.03,,,0.06,WUHU216HW,2013-06-29 18:37:00,
2013-06-29 11:42:00,67.3,61.0,27.57,NNE,23,1.6,1.8,80,0.04,,,0.08,WUHU216HW,2013-06-29 18:42:00,
2013-06-29 11:46:00,68.0,62.7,27.57,East,90,1.6,1.8,83,0.06,,,0.10,WUHU216HW,2013-06-29 18:46:00,
2013-06-29 11:52:00,68.0,62.4,27.57,WNW,293,2.5,2.7,82,0.06,,,0.10,WUHU216HW,2013-06-29 18:52:00,
2013-06-29 11:57:00,68.0,62.1,27.57,West,270,0.4,3.6,81,0.05,,,0.10,WUHU216HW,2013-06-29 18:57:00,
2013-06-29 12:02:00,68.6,62.6,27.57,SE,135,2.0,3.6,81,0.04,,,0.10,WUHU216HW,2013-06-29 19:02:00,
2013-06-29 12:07:00,68.9,62.9,27.58,West,270,2.0,3.4,81,0.04,,,0.10,WUHU216HW,2013-06-29 19:07:00,
2013-06-29 12:12:00,68.9,62.9,27.58,SE,135,1.3,3.4,81,0.04,,,0.10,WUHU216HW,2013-06-29 19:12:00,
2013-06-29 12:17:00,69.1,62.7,27.58,SE,135,1.8,4.9,80,0.04,,,0.10,WUHU216HW,2013-06-29 19:17:00,
2013-06-29 12:22:00,69.5,63.0,27.58,WSW,248,0.4,4.9,80,0.04,,,0.10,WUHU216HW,2013-06-29 19:22:00,
2013-06-29 12:26:00,69.5,61.9,27.59,West,270,2.0,4.5,77,0.03,,,0.10,WUHU216HW,2013-06-29 19:26:00,
2013-06-29 12:31:00,68.9,61.0,27.58,West,270,0.7,4.5,76,0.03,,,0.10,WUHU216HW,2013-06-29 19:31:00,
2013-06-29 12:36:00,68.6,61.1,27.58,SSE,158,1.1,4.0,77,0.03,,,0.10,WUHU216HW,2013-06-29 19:36:00,
2013-06-29 12:41:00,68.4,60.9,27.58,SE,135,1.1,2.5,77,0.00,,,0.10,WUHU216HW,2013-06-29 19:41:00,
2013-06-29 12:47:00,68.4,61.3,27.57,NE,45,0.4,2.5,78,0.00,,,0.10,WUHU216HW,2013-06-29 19:47:00,
2013-06-29 12:52:00,68.6,61.1,27.57,ENE,68,2.9,2.9,77,0.00,,,0.10,WUHU216HW,2013-06-29 19:52:00,
2013-06-29 12:57:00,68.8,61.3,27.57,ESE,113,1.1,2.9,77,0.00,,,0.10,WUHU216HW,2013-06-29 19:57:00,
2013-06-29 13:02:00,68.8,60.8,27.57,ESE,113,2.5,2.5,76,0.00,,,0.10,WUHU216HW,2013-06-29 20:02:00,
2013-06-29 13:07:00,68.9,61.4,27.58,West,270,2.9,2.9,77,0.00,,,0.10,WUHU216HW,2013-06-29 20:07:00,
2013-06-29 13:12:00,68.9,61.4,27.58,NNE,23,0.9,2.9,77,0.00,,,0.10,WUHU216HW,2013-06-29 20:12:00,
2013-06-29 13:17:00,68.8,61.7,27.58,North,0,0.4,3.8,78,0.00,,,0.10,WUHU216HW,2013-06-29 20:17:00,
2013-06-29 13:22:00,69.1,62.4,27.57,ESE,113,3.1,3.8,79,0.00,,,0.10,WUHU216HW,2013-06-29 20:22:00,
2013-06-29 13:27:00,69.8,62.2,27.57,NNE,23,2.5,4.9,77,0.00,,,0.10,WUHU216HW,2013-06-29 20:27:00,
2013-06-29 13:32:00,70.7,63.1,27.57,North,0,1.6,5.6,77,0.00,,,0.10,WUHU216HW,2013-06-29 20:32:00,
2013-06-29 13:37:00,72.0,64.0,27.57,North,0,1.3,5.6,76,0.00,,,0.10,WUHU216HW,2013-06-29 20:37:00,
2013-06-29 13:41:00,72.5,63.8,27.56,NNE,23,4.9,4.9,74,0.00,,,0.10,WUHU216HW,2013-06-29 20:41:00,
2013-06-29 13:46:00,72.0,62.5,27.55,ESE,113,1.3,4.9,72,0.00,,,0.10,WUHU216HW,2013-06-29 20:46:00,
2013-06-29 13:51:00,71.3,62.2,27.56,West,270,1.1,4.9,73,0.00,,,0.10,WUHU216HW,2013-06-29 20:51:00,
2013-06-29 13:56:00,70.9,62.2,27.54,West,270,3.6,3.6,74,0.00,,,0.10,WUHU216HW,2013-06-29 20:56:00,
2013-06-29 14:01:00,70.7,62.0,27.53,NNW,338,1.3,4.9,74,0.00,,,0.10,WUHU216HW,2013-06-29 21:01:00,
2013-06-29 14:06:00,70.2,61.8,27.54,North,0,1.6,4.9,75,0.00,,,0.10,WUHU216HW,2013-06-29 21:06:00,
2013-06-29 14:11:00,70.0,62.0,27.55,West,270,0.9,4.0,76,0.00,,,0.10,WUHU216HW,2013-06-29 21:11:00,
2013-06-29 14:16:00,70.0,62.4,27.56,WSW,248,3.6,4.0,77,0.00,,,0.10,WUHU216HW,2013-06-29 21:16:00,
2013-06-29 14:22:00,70.0,62.4,27.57,WSW,248,3.6,5.1,77,0.00,,,0.10,WUHU216HW,2013-06-29 21:22:00,
2013-06-29 14:26:00,70.6,63.4,27.56,WSW,248,0.7,5.1,78,0.00,,,0.10,WUHU216HW,2013-06-29 21:26:00,
2013-06-29 14:32:00,72.2,63.5,27.56,WNW,293,1.6,5.4,74,0.00,,,0.10,WUHU216HW,2013-06-29 21:32:00,
2013-06-29 14:37:00,72.4,63.6,27.55,North,0,0.9,5.4,74,0.00,,,0.10,WUHU216HW,2013-06-29 21:37:00,
2013-06-29 14:42:00,72.4,62.8,27.55,South,180,5.4,5.4,72,0.00,,,0.10,WUHU216HW,2013-06-29 21:42:00,
2013-06-29 14:46:00,71.6,62.1,27.54,West,270,1.1,6.5,72,0.00,,,0.10,WUHU216HW,2013-06-29 21:46:00,
2013-06-29 14:51:00,70.9,62.2,27.54,NW,315,0.7,6.5,74,0.00,,,0.10,WUHU216HW,2013-06-29 21:51:00,
2013-06-29 14:56:00,70.4,61.7,27.54,NNW,338,0.9,3.6,74,0.00,,,0.10,WUHU216HW,2013-06-29 21:56:00,
2013-06-29 15:01:00,70.2,61.8,27.56,WSW,248,1.8,3.6,75,0.00,,,0.10,WUHU216HW,2013-06-29 22:01:00,
2013-06-29 15:06:00,70.2,62.2,27.56,NNW,338,2.0,3.4,76,0.00,,,0.10,WUHU216HW,2013-06-29 22:06:00,
2013-06-29 15:11:00,71.6,63.6,27.55,NE,45,2.7,2.7,76,0.00,,,0.10,WUHU216HW,2013-06-29 22:11:00,
2013-06-29 15:16:00,72.7,63.6,27.54,North,0,1.8,3.4,73,0.00,,,0.10,WUHU216HW,2013-06-29 22:16:00,
2013-06-29 15:22:00,72.7,63.6,27.55,WSW,248,0.4,3.4,73,0.00,,,0.10,WUHU216HW,2013-06-29 22:22:00,
2013-06-29 15:27:00,72.4,63.3,27.54,ENE,68,1.8,2.9,73,0.00,,,0.10,WUHU216HW,2013-06-29 22:27:00,
2013-06-29 15:31:00,72.2,63.5,27.53,SE,135,1.1,2.5,74,0.00,,,0.10,WUHU216HW,2013-06-29 22:31:00,
2013-06-29 15:37:00,72.0,62.1,27.53,South,180,2.5,2.5,71,0.00,,,0.10,WUHU216HW,2013-06-29 22:37:00,
2013-06-29 15:42:00,72.0,62.9,27.52,NW,315,0.7,3.8,73,0.00,,,0.10,WUHU216HW,2013-06-29 22:42:00,
2013-06-29 15:47:00,72.2,63.1,27.52,ESE,113,2.2,3.8,73,0.00,,,0.10,WUHU216HW,2013-06-29 22:47:00,
2013-06-29 15:51:00,72.4,63.3,27.52,WSW,248,0.7,2.9,73,0.00,,,0.10,WUHU216HW,2013-06-29 22:51:00,
2013-06-29 15:57:00,72.5,63.5,27.53,WSW,248,1.6,2.9,73,0.00,,,0.10,WUHU216HW,2013-06-29 22:57:00,
2013-06-29 16:01:00,73.1,64.0,27.53,WSW,248,0.9,1.8,73,0.00,,,0.10,WUHU216HW,2013-06-29 23:01:00,
2013-06-29 16:06:00,73.3,64.2,27.53,West,270,0.7,2.7,73,0.00,,,0.10,WUHU216HW,2013-06-29 23:06:00,
2013-06-29 16:11:00,73.1,63.5,27.53,WSW,248,1.8,4.3,72,0.00,,,0.10,WUHU216HW,2013-06-29 23:11:00,
2013-06-29 16:17:00,72.7,63.6,27.53,NE,45,1.6,4.3,73,0.00,,,0.10,WUHU216HW,2013-06-29 23:17:00,
2013-06-29 16:21:00,72.9,63.8,27.53,West,270,0.7,2.0,73,0.00,,,0.10,WUHU216HW,2013-06-29 23:21:00,
2013-06-29 16:27:00,73.6,64.9,27.53,WNW,293,3.1,3.1,74,0.00,,,0.10,WUHU216HW,2013-06-29 23:27:00,
2013-06-29 16:31:00,74.9,64.4,27.53,WSW,248,0.7,3.1,70,0.00,,,0.10,WUHU216HW,2013-06-29 23:31:00,
2013-06-29 16:36:00,75.4,64.5,27.53,ENE,68,1.6,3.1,69,0.00,,,0.10,WUHU216HW,2013-06-29 23:36:00,
2013-06-29 16:41:00,75.8,63.6,27.53,WSW,248,0.4,2.9,66,0.00,,,0.10,WUHU216HW,2013-06-29 23:41:00,
2013-06-29 16:46:00,76.0,64.2,27.52,WSW,248,0.0,3.4,67,0.00,,,0.10,WUHU216HW,2013-06-29 23:46:00,
2013-06-29 16:51:00,76.0,64.6,27.52,WSW,248,0.0,3.4,68,0.00,,,0.10,WUHU216HW,2013-06-29 23:51:00,
2013-06-29 16:56:00,76.0,63.7,27.51,West,270,0.4,1.6,66,0.00,,,0.10,WUHU216HW,2013-06-29 23:56:00,
2013-06-29 17:01:00,75.8,63.6,27.51,ESE,113,1.3,1.8,66,0.00,,,0.10,WUHU216HW,2013-06-30 00:01:00,
2013-06-29 17:07:00,76.0,62.5,27.51,SW,225,3.8,3.8,63,0.00,,,0.10,WUHU216HW,2013-06-30 00:07:00,
2013-06-29 17:12:00,76.1,63.5,27.51,SSE,158,0.7,3.8,65,0.00,,,0.10,WUHU216HW,2013-06-30 00:12:00,
2013-06-29 17:17:00,76.7,62.6,27.51,SSE,158,1.1,3.8,62,0.00,,,0.10,WUHU216HW,2013-06-30 00:17:00,
2013-06-29 17:22:00,77.4,62.9,27.52,North,0,2.2,3.6,61,0.00,,,0.10,WUHU216HW,2013-06-30 00:22:00,
2013-06-29 17:27:00,77.8,62.8,27.52,NE,45,1.6,2.5,60,0.00,,,0.10,WUHU216HW,2013-06-30 00:27:00,
2013-06-29 17:32:00,77.8,61.3,27.52,West,270,1.8,3.4,57,0.00,,,0.10,WUHU216HW,2013-06-30 00:32:00,
2013-06-29 17:37:00,77.8,62.3,27.52,NNE,23,1.1,3.4,59,0.00,,,0.10,WUHU216HW,2013-06-30 00:37:00,
2013-06-29 17:42:00,77.9,62.0,27.52,North,0,0.9,2.7,58,0.00,,,0.10,WUHU216HW,2013-06-30 00:42:00,
2013-06-29 17:47:00,78.1,62.2,27.52,WNW,293,0.0,2.7,58,0.00,,,0.10,WUHU216HW,2013-06-30 00:47:00,
2013-06-29 17:52:00,78.5,62.0,27.52,West,270,0.9,2.2,57,0.00,,,0.10,WUHU216HW,2013-06-30 00:52:00,
2013-06-29 17:57:00,78.7,62.2,27.51,West,270,0.9,2.2,57,0.00,,,0.10,WUHU216HW,2013-06-30 00:57:00,
2013-06-29 18:02:00,78.5,62.0,27.51,North,0,0.4,2.2,57,0.00,,,0.10,WUHU216HW,2013-06-30 01:02:00,
2013-06-29 18:07:00,78.5,61.5,27.52,SSW,203,2.5,2.5,56,0.00,,,0.10,WUHU216HW,2013-06-30 01:07:00,
2013-06-29 18:12:00,78.3,61.8,27.52,West,270,0.4,2.5,57,0.00,,,0.10,WUHU216HW,2013-06-30 01:12:00,
2013-06-29 18:17:00,78.1,62.2,27.52,SSW,203,3.4,3.4,58,0.00,,,0.10,WUHU216HW,2013-06-30 01:17:00,
2013-06-29 18:22:00,77.6,62.1,27.52,West,270,0.4,3.4,59,0.00,,,0.10,WUHU216HW,2013-06-30 01:22:00,
2013-06-29 18:27:00,77.2,62.3,27.52,East,90,1.1,2.9,60,0.00,,,0.10,WUHU216HW,2013-06-30 01:27:00,
2013-06-29 18:32:00,76.7,62.6,27.51,WSW,248,0.9,2.9,62,0.00,,,0.10,WUHU216HW,2013-06-30 01:32:00,
2013-06-29 18:37:00,76.1,62.7,27.51,WNW,293,0.2,2.2,63,0.00,,,0.10,WUHU216HW,2013-06-30 01:37:00,
2013-06-29 18:42:00,76.0,62.9,27.51,WNW,293,0.4,2.7,64,0.00,,,0.10,WUHU216HW,2013-06-30 01:42:00,
2013-06-29 18:47:00,75.8,62.7,27.51,WSW,248,0.0,2.7,64,0.00,,,0.10,WUHU216HW,2013-06-30 01:47:00,
2013-06-29 18:52:00,75.6,63.5,27.51,North,0,1.3,2.7,66,0.00,,,0.10,WUHU216HW,2013-06-30 01:52:00,
2013-06-29 18:57:00,75.6,63.5,27.51,SSE,158,1.1,1.8,66,0.00,,,0.10,WUHU216HW,2013-06-30 01:57:00,
2013-06-29 19:02:00,75.2,63.1,27.51,West,270,1.8,2.0,66,0.00,,,0.10,WUHU216HW,2013-06-30 02:02:00,
2013-06-29 19:07:00,74.9,63.2,27.51,North,0,1.1,2.0,67,0.00,,,0.10,WUHU216HW,2013-06-30 02:07:00,
2013-06-29 19:12:00,74.7,63.5,27.51,NNW,338,1.1,2.0,68,0.00,,,0.10,WUHU216HW,2013-06-30 02:12:00,
2013-06-29 19:17:00,74.5,63.7,27.51,WNW,293,0.4,2.9,69,0.00,,,0.10,WUHU216HW,2013-06-30 02:17:00,
2013-06-29 19:22:00,74.5,63.7,27.51,NW,315,0.4,2.9,69,0.00,,,0.10,WUHU216HW,2013-06-30 02:22:00,
2013-06-29 19:26:00,74.3,64.0,27.50,West,270,1.3,2.2,70,0.00,,,0.10,WUHU216HW,2013-06-30 02:26:00,
2013-06-29 19:31:00,74.3,63.5,27.50,WNW,293,0.9,2.2,69,0.00,,,0.10,WUHU216HW,2013-06-30 02:31:00,
2013-06-29 19:36:00,74.2,63.4,27.51,WSW,248,0.9,2.9,69,0.00,,,0.10,WUHU216HW,2013-06-30 02:36:00,
2013-06-29 19:41:00,74.0,63.2,27.50,NNW,338,0.2,2.9,69,0.00,,,0.10,WUHU216HW,2013-06-30 02:41:00,
2013-06-29 19:46:00,73.8,63.6,27.50,North,0,0.4,2.9,70,0.00,,,0.10,WUHU216HW,2013-06-30 02:46:00,
2013-06-29 19:51:00,73.6,63.4,27.51,SW,225,0.0,2.9,70,0.00,,,0.10,WUHU216HW,2013-06-30 02:51:00,
2013-06-29 19:56:00,73.4,63.2,27.50,NNE,23,0.4,1.1,70,0.00,,,0.10,WUHU216HW,2013-06-30 02:56:00,
2013-06-29 20:01:00,73.1,63.2,27.51,West,270,0.2,1.1,71,0.00,,,0.10,WUHU216HW,2013-06-30 03:01:00,
2013-06-29 20:02:00,73.1,63.2,27.51,West,270,0.0,1.1,71,0.00,,,0.10,WUHU216HW,2013-06-30 03:02:00,
2013-06-29 20:07:00,72.7,62.8,27.51,West,270,0.7,1.1,71,0.00,,,0.10,WUHU216HW,2013-06-30 03:07:00,
2013-06-29 20:12:00,72.4,62.8,27.51,WSW,248,0.7,2.0,72,0.00,,,0.10,WUHU216HW,2013-06-30 03:12:00,
2013-06-29 20:17:00,72.2,62.6,27.51,WSW,248,0.0,2.0,72,0.00,,,0.10,WUHU216HW,2013-06-30 03:17:00,
2013-06-29 20:22:00,72.0,62.1,27.51,WSW,248,0.0,1.1,71,0.00,,,0.10,WUHU216HW,2013-06-30 03:22:00,
2013-06-29 20:27:00,71.6,62.1,27.51,WSW,248,0.0,0.4,72,0.00,,,0.10,WUHU216HW,2013-06-30 03:27:00,
2013-06-29 20:32:00,71.3,61.7,27.51,WSW,248,0.4,0.4,72,0.00,,,0.10,WUHU216HW,2013-06-30 03:32:00,
2013-06-29 20:37:00,71.1,62.0,27.51,ESE,113,0.0,1.3,73,0.00,,,0.10,WUHU216HW,2013-06-30 03:37:00,
2013-06-29 20:42:00,70.7,61.7,27.51,North,0,0.0,1.3,73,0.00,,,0.10,WUHU216HW,2013-06-30 03:42:00,
2013-06-29 20:47:00,70.4,61.7,27.51,North,0,0.0,0.0,74,0.00,,,0.10,WUHU216HW,2013-06-30 03:47:00,
2013-06-29 20:52:00,70.0,61.3,27.51,North,0,0.0,0.0,74,0.00,,,0.10,WUHU216HW,2013-06-30 03:52:00,
2013-06-29 20:57:00,69.5,61.1,27.51,North,0,0.0,0.0,75,0.00,,,0.10,WUHU216HW,2013-06-30 03:57:00,
2013-06-29 21:01:00,69.3,61.0,27.51,North,0,0.0,0.0,75,0.00,,,0.10,WUHU216HW,2013-06-30 04:01:00,
2013-06-29 21:06:00,68.9,60.7,27.51,North,0,0.0,0.0,75,0.00,,,0.10,WUHU216HW,2013-06-30 04:06:00,
2013-06-29 21:11:00,68.6,60.8,27.51,North,0,0.0,0.0,76,0.00,,,0.10,WUHU216HW,2013-06-30 04:11:00,
2013-06-29 21:16:00,68.2,60.4,27.52,North,0,0.0,0.2,76,0.00,,,0.10,WUHU216HW,2013-06-30 04:16:00,
2013-06-29 21:21:00,67.9,60.4,27.52,North,0,0.0,0.2,77,0.00,,,0.10,WUHU216HW,2013-06-30 04:21:00,
2013-06-29 21:26:00,67.7,60.2,27.52,North,0,0.0,0.2,77,0.00,,,0.10,WUHU216HW,2013-06-30 04:26:00,
2013-06-29 21:31:00,67.3,60.3,27.52,North,0,0.0,0.0,78,0.00,,,0.10,WUHU216HW,2013-06-30 04:31:00,
2013-06-29 21:36:00,67.0,60.0,27.52,North,0,0.0,0.0,78,0.00,,,0.10,WUHU216HW,2013-06-30 04:36:00,
2013-06-29 21:41:00,66.6,59.6,27.52,North,0,0.0,0.0,78,0.00,,,0.10,WUHU216HW,2013-06-30 04:41:00,
2013-06-29 21:46:00,66.4,59.8,27.52,North,0,0.0,0.0,79,0.00,,,0.10,WUHU216HW,2013-06-30 04:46:00,
2013-06-29 21:51:00,66.1,59.8,27.52,North,0,0.0,0.0,80,0.00,,,0.10,WUHU216HW,2013-06-30 04:51:00,
2013-06-29 21:56:00,65.7,59.4,27.52,North,0,0.0,0.0,80,0.00,,,0.10,WUHU216HW,2013-06-30 04:56:00,
2013-06-29 22:01:00,65.5,59.2,27.52,North,0,0.0,0.0,80,0.00,,,0.10,WUHU216HW,2013-06-30 05:01:00,
2013-06-29 22:06:00,65.3,59.0,27.52,North,0,0.0,0.0,80,0.00,,,0.10,WUHU216HW,2013-06-30 05:06:00,
2013-06-29 22:11:00,65.2,58.9,27.52,North,0,0.0,0.0,80,0.00,,,0.10,WUHU216HW,2013-06-30 05:11:00,
2013-06-29 22:17:00,64.8,58.9,27.52,North,0,0.0,0.0,81,0.00,,,0.10,WUHU216HW,2013-06-30 05:17:00,
2013-06-29 22:22:00,64.4,58.5,27.52,North,0,0.0,0.0,81,0.00,,,0.10,WUHU216HW,2013-06-30 05:22:00,
2013-06-29 22:27:00,64.3,58.7,27.51,North,0,0.0,0.0,82,0.00,,,0.10,WUHU216HW,2013-06-30 05:27:00,
2013-06-29 22:32:00,64.1,58.5,27.51,North,0,0.0,0.0,82,0.00,,,0.10,WUHU216HW,2013-06-30 05:32:00,
2013-06-29 22:37:00,64.1,58.2,27.51,North,0,0.0,0.0,81,0.00,,,0.10,WUHU216HW,2013-06-30 05:37:00,
2013-06-29 22:42:00,63.7,57.8,27.51,North,0,0.0,0.0,81,0.00,,,0.10,WUHU216HW,2013-06-30 05:42:00,
2013-06-29 22:47:00,63.5,57.6,27.51,North,0,0.0,0.0,81,0.00,,,0.10,WUHU216HW,2013-06-30 05:47:00,
2013-06-29 22:52:00,63.4,57.8,27.51,North,0,0.0,0.0,82,0.00,,,0.10,WUHU216HW,2013-06-30 05:52:00,
2013-06-29 22:57:00,63.0,57.4,27.52,North,0,0.0,0.0,82,0.00,,,0.10,WUHU216HW,2013-06-30 05:57:00,
2013-06-29 23:02:00,63.0,57.4,27.51,North,0,0.0,0.0,82,0.00,,,0.10,WUHU216HW,2013-06-30 06:02:00,
2013-06-29 23:07:00,62.8,57.5,27.51,North,0,0.0,0.0,83,0.00,,,0.10,WUHU216HW,2013-06-30 06:07:00,
2013-06-29 23:12:00,62.6,57.3,27.51,NNE,23,0.4,0.4,83,0.00,,,0.10,WUHU216HW,2013-06-30 06:12:00,
2013-06-29 23:17:00,62.3,57.1,27.51,NNE,23,0.0,0.4,83,0.00,,,0.10,WUHU216HW,2013-06-30 06:17:00,
2013-06-29 23:22:00,62.1,56.9,27.51,North,0,0.0,0.4,83,0.00,,,0.10,WUHU216HW,2013-06-30 06:22:00,
2013-06-29 23:27:00,61.9,57.1,27.51,North,0,0.0,0.0,84,0.00,,,0.10,WUHU216HW,2013-06-30 06:27:00,
2013-06-29 23:32:00,61.6,56.7,27.51,North,0,0.0,0.0,84,0.00,,,0.10,WUHU216HW,2013-06-30 06:32:00,
2013-06-29 23:37:00,61.6,57.1,27.51,NNW,338,0.0,0.4,85,0.00,,,0.10,WUHU216HW,2013-06-30 06:37:00,
2013-06-29 23:42:00,61.4,56.9,27.51,NNW,338,0.0,0.4,85,0.00,,,0.10,WUHU216HW,2013-06-30 06:42:00,
2013-06-29 23:47:00,61.4,56.9,27.51,NNW,338,0.0,0.2,85,0.00,,,0.10,WUHU216HW,2013-06-30 06:47:00,
2013-06-29 23:52:00,61.2,56.7,27.51,NNW,338,0.0,0.0,85,0.00,,,0.10,WUHU216HW,2013-06-30 06:52:00,
2013-06-29 23:57:00,61.0,56.5,27.51,NNW,338,0.0,0.0,85,0.00,,,0.10,WUHU216HW,2013-06-30 06:57:00,